Location: Lake Runnemede Observatory
(43.4843°N, 72.3851°W)
Time: 05:49:20
(UTC-04:00)

Amateur Radio Satellites - All Passes

Search period start: 01 August 2014 05:19
Search period end: 02 August 2014 05:19
Location: Lake Runnemede Observatory, 43.4843°N, 72.3851°W

Satellite Date Start Highest point End Downlink Frequencies (MHz)
Time Altitude Azimuth
AO-7 01 Aug 05:29:16 05:37:39 79° 107° (ESE) 05:45:57 29.400 - 29.500 MHz
STRAND 1 01 Aug 05:45:28 05:49:46 28° 65° (ENE) 05:54:03 ?
JAS-2 01 Aug 06:02:03 06:06:04 19° 89° (E) 06:09:52 435.800 - 435.900 CW/SSB, 435.910 FM
TMSAT-1 01 Aug 06:08:50 06:09:23 10° 305° (NW) 06:09:55 436.925 FM
ISS 01 Aug 06:11:26 06:13:04 13° 229° (SW) 06:14:43 145.800 FM
JAS-1B 01 Aug 06:14:58 06:20:04 16° 316° (NW) 06:24:53 435.800 - 435.900 CW/SSB
KITSAT 1 01 Aug 06:15:05 06:23:12 86° 302° (WNW) 06:31:22 435.175 FM
MaSat-1 01 Aug 06:17:58 06:23:15 71° 246° (WSW) 06:28:11 437.345 MHz
Uosat F 01 Aug 06:24:17 06:28:18 25° 296° (WNW) 06:32:17 435.120 FM
Hamsat 01 Aug 06:33:18 06:37:30 47° 99° (E) 06:41:41 145.90 MHz
PCSat 01 Aug 06:53:00 06:54:27 11° 30° (NNE) 06:55:53 145.825 MHz
Saudisat 1A 01 Aug 07:04:58 07:09:22 79° 123° (ESE) 07:13:49 436.775 MHz
AO-7 01 Aug 07:23:04 07:29:37 27° 307° (NW) 07:36:09 29.400 - 29.500 MHz
STRAND 1 01 Aug 07:23:58 07:28:46 40° 262° (W) 07:33:36 ?
JAS-2 01 Aug 07:46:01 07:51:45 57° 290° (WNW) 07:56:57 435.800 - 435.900 CW/SSB, 435.910 FM
SO-67 01 Aug 07:49:41 07:53:06 52° 99° (E) 07:56:29 435.3500 MHz FM
Sapphire 01 Aug 08:01:24 08:05:54 26° 45° (NE) 08:10:23 437.095 MHz 1200 baud AX-25 AFSK
Hamsat 01 Aug 08:10:15 08:13:07 18° 295° (WNW) 08:15:59 145.90 MHz
KITSAT 1 01 Aug 08:13:09 08:19:47 27° 325° (NW) 08:26:27 435.175 FM
HO-68 01 Aug 08:18:51 08:21:41 13° 86° (E) 08:24:31 435.675 MHz FM
PCSat 01 Aug 08:34:07 08:39:20 45° 52° (NE) 08:44:30 145.825 MHz
Saudisat 1A 01 Aug 08:46:32 08:49:30 17° 322° (NW) 08:52:29 436.775 MHz
UKube-1 01 Aug 09:05:23 09:07:33 14° 91° (E) 09:09:43 145.840 MHz, 145.915 MHz
SO-67 01 Aug 09:24:56 09:25:43 11° 296° (WNW) 09:26:29 435.3500 MHz FM
Sapphire 01 Aug 09:44:22 09:49:42 58° 245° (WSW) 09:54:59 437.095 MHz 1200 baud AX-25 AFSK
Oscar 11 01 Aug 09:45:44 09:49:00 20° 93° (E) 09:52:14 145.825 FM, Beacon 2401.500 USB
HO-68 01 Aug 10:03:23 10:10:33 74° 105° (ESE) 10:17:40 435.675 MHz FM
KITSAT 1 01 Aug 10:14:39 10:18:36 14° 355° (N) 10:22:33 435.175 FM
FUNcube-1 01 Aug 10:17:28 10:20:07 16° 92° (E) 10:22:46 145.950 - 145.970 MHz USB
PCSat 01 Aug 10:17:56 10:22:32 29° 251° (WSW) 10:27:07 145.825 MHz
UKube-1 01 Aug 10:39:51 10:44:08 58° 287° (WNW) 10:48:24 145.840 MHz, 145.915 MHz
SO-50 01 Aug 10:54:43 10:57:53 19° 111° (ESE) 11:01:05 436.795 FM
RS-15 01 Aug 11:17:24 11:24:42 21° 100° (E) 11:31:52 29.354 - 29.394 USB, Beacon 29.352 USB
Oscar 11 01 Aug 11:21:17 11:25:19 38° 290° (WNW) 11:29:20 145.825 FM, Beacon 2401.500 USB
JAS-1B 01 Aug 11:36:09 11:36:59 10° 36° (NE) 11:37:49 435.800 - 435.900 CW/SSB
HO-68 01 Aug 11:52:07 11:57:35 24° 304° (NW) 12:03:01 435.675 MHz FM
FUNcube-1 01 Aug 11:52:45 11:56:45 45° 288° (WNW) 12:00:47 145.950 - 145.970 MHz USB
KITSAT 1 01 Aug 12:12:08 12:17:51 20° 26° (NNE) 12:23:31 435.175 FM
AO-Echo 01 Aug 12:24:17 12:26:01 12° 56° (ENE) 12:27:44 ?
SO-50 01 Aug 12:33:40 12:38:02 52° 309° (NW) 12:42:31 436.795 FM
Oscar 19 01 Aug 12:33:56 12:38:09 27° 65° (ENE) 12:42:23 437.125 CW, 437.150 USB
UOSAT-12 01 Aug 12:35:50 12:38:30 15° 109° (ESE) 12:41:12 437.025 FM, 437.400 FM
Oscar 16 01 Aug 13:02:07 13:07:02 49° 70° (ENE) 13:11:58 437.025 USB, Beacon 2401.1428
JAS-1B 01 Aug 13:16:18 13:24:31 37° 58° (ENE) 13:33:10 435.800 - 435.900 CW/SSB
RS-15 01 Aug 13:24:11 13:35:18 83° 121° (ESE) 13:46:15 29.354 - 29.394 USB, Beacon 29.352 USB
ITAMSAT 1 01 Aug 13:30:51 13:35:43 41° 68° (ENE) 13:40:35 435.822 SSB
Uribyol 2 01 Aug 13:49:01 13:54:08 63° 72° (ENE) 13:59:17 436.500 FM
AO-27 01 Aug 13:50:44 13:55:53 63° 72° (ENE) 14:01:03 436.795 MHz FM
Saudisat 1A 01 Aug 13:52:17 13:54:55 15° 36° (NE) 13:57:32 436.775 MHz
AO-Echo 01 Aug 13:58:34 14:03:53 75° 74° (ENE) 14:09:11 ?
KITSAT 1 01 Aug 14:07:12 14:15:11 58° 51° (NE) 14:23:06 435.175 FM
TMSAT-1 01 Aug 14:08:19 14:12:49 29° 65° (ENE) 14:17:19 436.925 FM
Oscar 19 01 Aug 14:12:30 14:17:18 40° 262° (W) 14:22:08 437.125 CW, 437.150 USB
UOSAT-12 01 Aug 14:13:30 14:18:05 68° 307° (NW) 14:22:48 437.025 FM, 437.400 FM
SO-50 01 Aug 14:18:13 14:19:42 11° 331° (NNW) 14:21:12 436.795 FM
Gurwin Techsat 1B 01 Aug 14:34:15 14:39:30 65° 73° (ENE) 14:44:46 435.225 FM
AO-7 01 Aug 14:38:44 14:45:32 29° 54° (NE) 14:52:19 29.400 - 29.500 MHz
Oscar 16 01 Aug 14:42:48 14:46:39 21° 267° (W) 14:50:31 437.025 USB, Beacon 2401.1428
JAS-1B 01 Aug 15:05:12 15:14:17 68° 259° (W) 15:24:13 435.800 - 435.900 CW/SSB
ITAMSAT 1 01 Aug 15:11:01 15:15:20 26° 266° (W) 15:19:41 435.822 SSB
Saudisat 1A 01 Aug 15:30:44 15:35:10 87° 56° (NE) 15:39:34 436.775 MHz
Uribyol 2 01 Aug 15:30:46 15:34:03 17° 269° (W) 15:37:21 436.500 FM
AO-27 01 Aug 15:32:30 15:35:50 17° 269° (W) 15:39:11 436.795 MHz FM
RS-15 01 Aug 15:39:00 15:48:55 37° 327° (NNW) 15:58:51 29.354 - 29.394 USB, Beacon 29.352 USB
AO-Echo 01 Aug 15:40:16 15:43:11 15° 271° (W) 15:46:06 ?
TMSAT-1 01 Aug 15:47:39 15:52:35 39° 263° (W) 15:57:33 436.925 FM
UOSAT-12 01 Aug 15:56:40 15:59:09 14° 327° (NNW) 16:01:39 437.025 FM, 437.400 FM
Uosat F 01 Aug 15:59:15 16:04:15 68° 73° (ENE) 16:09:16 435.120 FM
KITSAT 1 01 Aug 16:03:07 16:10:14 36° 252° (WSW) 16:17:19 435.175 FM
JAS-2 01 Aug 16:16:01 16:20:08 16° 55° (NE) 16:24:05 435.800 - 435.900 CW/SSB, 435.910 FM
Gurwin Techsat 1B 01 Aug 16:16:34 16:19:56 17° 270° (W) 16:23:19 435.225 FM
AO-7 01 Aug 16:29:14 16:37:35 74° 254° (WSW) 16:46:00 29.400 - 29.500 MHz
JAS-1B 01 Aug 17:01:42 17:06:37 15° 280° (W) 17:11:45 435.800 - 435.900 CW/SSB
OPAL 01 Aug 17:03:17 17:08:23 71° 105° (ESE) 17:13:31 ?
Saudisat 1A 01 Aug 17:13:15 17:14:03 10° 253° (WSW) 17:14:50 436.775 MHz
Hamsat 01 Aug 17:27:56 17:31:48 38° 71° (ENE) 17:35:43 145.90 MHz
Uosat F 01 Aug 17:40:41 17:43:31 15° 270° (W) 17:46:22 435.120 FM
JAS-2 01 Aug 17:56:29 18:04:09 72° 73° (ENE) 18:11:12 435.800 - 435.900 CW/SSB, 435.910 FM
RS-15 01 Aug 17:57:14 18:05:36 24° 2° (N) 18:14:03 29.354 - 29.394 USB, Beacon 29.352 USB
SO-67 01 Aug 18:24:32 18:27:13 21° 69° (ENE) 18:29:55 435.3500 MHz FM
AO-7 01 Aug 18:27:36 18:31:44 14° 273° (W) 18:35:54 29.400 - 29.500 MHz
OPAL 01 Aug 18:43:30 18:46:43 17° 302° (WNW) 18:49:58 ?
HO-68 01 Aug 18:50:09 18:53:25 14° 48° (NE) 18:56:40 435.675 MHz FM
Hamsat 01 Aug 19:04:57 19:07:56 19° 268° (W) 19:10:56 145.90 MHz
SO-50 01 Aug 19:23:51 19:28:01 29° 44° (NE) 19:32:13 436.795 FM
STRAND 1 01 Aug 19:32:58 19:38:04 63° 102° (ESE) 19:43:06 ?
JAS-2 01 Aug 19:43:37 19:49:36 24° 268° (W) 19:55:17 435.800 - 435.900 CW/SSB, 435.910 FM
SO-67 01 Aug 19:57:24 20:00:12 23° 265° (W) 20:03:01 435.3500 MHz FM
UKube-1 01 Aug 20:02:19 20:04:52 15° 62° (ENE) 20:07:25 145.840 MHz, 145.915 MHz
MaSat-1 01 Aug 20:09:57 20:13:52 41° 109° (ESE) 20:18:23 437.345 MHz
RS-15 01 Aug 20:11:53 20:22:04 40° 36° (NE) 20:32:28 29.354 - 29.394 USB, Beacon 29.352 USB
HO-68 01 Aug 20:32:42 20:39:45 63° 68° (ENE) 20:46:48 435.675 MHz FM
Oscar 11 01 Aug 20:42:23 20:45:28 20° 65° (ENE) 20:48:34 145.825 FM, Beacon 2401.500 USB
UOSAT-12 01 Aug 21:02:31 21:06:21 24° 41° (NE) 21:10:09 437.025 FM, 437.400 FM
SO-50 01 Aug 21:04:13 21:08:43 42° 243° (WSW) 21:13:15 436.795 FM
STRAND 1 01 Aug 21:13:22 21:16:45 18° 299° (WNW) 21:20:07 ?
FUNcube-1 01 Aug 21:15:41 21:18:21 16° 64° (ENE) 21:20:59 145.950 - 145.970 MHz USB
ISS 01 Aug 21:17:51 21:19:45 15° 132° (SE) 21:21:39 145.800 FM
UKube-1 01 Aug 21:36:19 21:40:37 58° 259° (W) 21:44:57 145.840 MHz, 145.915 MHz
MaSat-1 01 Aug 21:47:40 21:51:23 26° 311° (NW) 21:55:29 437.345 MHz
Oscar 11 01 Aug 22:17:19 22:21:23 41° 262° (W) 22:25:29 145.825 FM, Beacon 2401.500 USB
HO-68 01 Aug 22:22:05 22:27:54 26° 267° (W) 22:33:44 435.675 MHz FM
RS-15 01 Aug 22:24:24 22:35:23 75° 241° (WSW) 22:46:48 29.354 - 29.394 USB, Beacon 29.352 USB
UOSAT-12 01 Aug 22:42:12 22:46:51 57° 240° (WSW) 22:51:25 437.025 FM, 437.400 FM
Sapphire 01 Aug 22:46:39 22:49:38 15° 104° (ESE) 22:52:37 437.095 MHz 1200 baud AX-25 AFSK
FUNcube-1 01 Aug 22:50:16 22:54:24 48° 261° (W) 22:58:29 145.950 - 145.970 MHz USB
ISS 01 Aug 22:52:44 22:56:04 78° 329° (NNW) 22:59:25 145.800 FM
PCSat 01 Aug 23:17:33 23:22:14 31° 110° (ESE) 23:26:56 145.825 MHz
Sapphire 02 Aug 00:26:56 00:32:20 79° 301° (WNW) 00:37:48 437.095 MHz 1200 baud AX-25 AFSK
ISS 02 Aug 00:30:24 00:33:10 23° 348° (NNW) 00:35:58 145.800 FM
RS-15 02 Aug 00:39:22 00:45:48 18° 262° (W) 00:52:23 29.354 - 29.394 USB, Beacon 29.352 USB
AO-40 02 Aug 00:53:02 03:41:58 22° 128° (SE) 04:59:58 Beacon 2401.320
PCSat 02 Aug 01:00:22 01:05:29 42° 308° (NW) 01:10:39 145.825 MHz
Oscar 16 02 Aug 01:13:52 01:16:57 16° 90° (E) 01:20:01 437.025 USB, Beacon 2401.1428
ITAMSAT 1 02 Aug 01:44:23 01:46:39 13° 89° (E) 01:48:54 435.822 SSB
Uribyol 2 02 Aug 02:01:29 02:05:16 20° 92° (E) 02:09:02 436.500 FM
AO-27 02 Aug 02:03:31 02:07:20 20° 92° (E) 02:11:07 436.795 MHz FM
AO-Echo 02 Aug 02:05:53 02:09:42 22° 92° (E) 02:13:24 ?
ISS 02 Aug 02:08:01 02:10:41 21° 8° (N) 02:13:21 145.800 FM
Sapphire 02 Aug 02:13:16 02:16:40 17° 322° (NW) 02:20:06 437.095 MHz 1200 baud AX-25 AFSK
Oscar 19 02 Aug 02:22:25 02:27:35 65° 102° (ESE) 02:32:43 437.125 CW, 437.150 USB
OPAL 02 Aug 02:42:43 02:46:12 20° 59° (ENE) 02:49:43 ?
PCSat 02 Aug 02:49:26 02:50:26 10° 331° (NNW) 02:51:27 145.825 MHz
Gurwin Techsat 1B 02 Aug 02:49:57 02:54:11 24° 93° (E) 02:58:23 435.225 FM
JAS-1B 02 Aug 02:51:22 03:00:02 45° 94° (E) 03:07:24 435.800 - 435.900 CW/SSB
Oscar 16 02 Aug 02:51:38 02:56:47 67° 287° (WNW) 03:01:54 437.025 USB, Beacon 2401.1428
ITAMSAT 1 02 Aug 03:21:34 03:26:46 80° 286° (WNW) 03:31:55 435.822 SSB
Uribyol 2 02 Aug 03:40:02 03:45:03 52° 289° (WNW) 03:50:02 436.500 FM
AO-27 02 Aug 03:42:07 03:47:09 52° 290° (WNW) 03:52:09 436.795 MHz FM
AO-Echo 02 Aug 03:43:56 03:48:43 45° 290° (WNW) 03:53:20 ?
ISS 02 Aug 03:44:37 03:47:55 54° 28° (NNE) 03:51:14 145.800 FM
TMSAT-1 02 Aug 04:01:47 04:07:07 77° 103° (ESE) 04:12:23 436.925 FM
Oscar 19 02 Aug 04:02:59 04:06:24 18° 299° (WNW) 04:09:50 437.125 CW, 437.150 USB
Uosat F 02 Aug 04:06:51 04:10:21 19° 92° (E) 04:13:50 435.120 FM
OPAL 02 Aug 04:19:50 04:24:40 56° 257° (WSW) 04:29:35 ?
MaSat-1 02 Aug 04:27:13 04:31:10 21° 46° (NE) 04:35:00 437.345 MHz
Gurwin Techsat 1B 02 Aug 04:29:18 04:34:22 47° 290° (WNW) 04:39:25 435.225 FM
AO-7 02 Aug 04:29:54 04:37:24 36° 97° (E) 04:44:49 29.400 - 29.500 MHz
KITSAT 1 02 Aug 04:37:36 04:44:29 32° 107° (ESE) 04:51:23 435.175 FM
JAS-1B 02 Aug 04:41:50 04:50:33 47° 297° (WNW) 04:58:03 435.800 - 435.900 CW/SSB
ITAMSAT 1 02 Aug 05:03:36 05:05:25 12° 304° (NW) 05:07:13 435.822 SSB
